Garnett Industrial Airport (K68)
Garnett, KS
Field Elevation: 989
Lat: 38°16.64N  Long: 95°12.91W
CTAF/Unicom Freq: 122.8000
   
     For Weather-by-Phone, call 785-448-3254
Weather Advisories
10/21/2014 02:05 Z
Altimeter 30.07" Hg
Wind 230° @ 0 KT
Gusts --
Visibility 1 1/4 SM
Temperature 13° C (55° F)
Dewpoint 11° C (52° F)
Relative Humidity 88%
Density Altitude --
Condensation Altitude 1,800 feet
  Wind and Runways
Indicated Runway = 19
History
 
 
More Info
All DigiWx sites map
NOAA Forecast
 
Airport IQ 5010
(FLV) Sherman Airfield
(GRE) Greenville
 
about DigiWx
 
FAA Disclaimer: The data displayed is for advisory purposes only and is not to be used for flight planning or operations. For official data, please call 785-448-3254 to hear the current automated AWOS voice message.
  METAR K68 210205Z AUTO 23000KT 1 1/4SM 13/11 A3007